Regional Weather Roundup
Issued by NWS

Home | Current Version | Previous Version | Graphics & Text | Print | Product List | Glossary On
Versions: 1 2 3 4 5 6 7 8 9 10 11 12 13 14 15 16 17 18 19 20 21 22 23 24 25 26 27
000
ASUS45 KSLC 222110
RWRUT

UTAH REGIONAL WEATHER ROUNDUP
NATIONAL WEATHER SERVICE SALT LAKE CITY UT
300 PM MDT TUE APR 22 2014

UTZ001>011-023>025-222200-

NORTHERN UTAH

CITY           SKY/WX    TMP DP  RH WIND       PRES   REMARKS
DUGWAY         PTSUNNY   77  26  15 S29G44    29.54  BLWGDUST
HILL AFB       PTSUNNY   71  26  18 S33G41    29.56F
LOGAN          MOSUNNY   70  30  22 S22       29.54F
OGDEN          CLOUDY    73  27  18 S31G41    29.54F
PROVO AIRPORT  PTSUNNY   73  30  20 S16       29.63F
SALT LAKE CITY CLOUDY    74  28  18 S21G36    29.54F
VERNAL         CLOUDY    69  28  21 SW15G24   29.74F
WENDOVER       CLOUDY    68  27  21 NW39G52   29.49R
HEBER CITY     CLOUDY    68  21  17 S14G24    29.66F
WEST JORDAN    PTSUNNY   70  36  28 SE17G33   29.58F

$$

UTZ012>022-026-027-222200-

SOUTHERN UTAH

CITY           SKY/WX    TMP DP  RH WIND       PRES   REMARKS
BRYCE CANYON   CLOUDY    65  25  22 S30G48    29.91F
CEDAR CITY     PTSUNNY   72  28  19 S33G54    29.74F
MILFORD        CLOUDY    75  27  17 S44G58    29.67S HAZE
MOAB/CYNLANDS  SUNNY     76  24  14 SW23G36   29.74F
PRICE          CLOUDY    70  23  17 S20G31    29.77F
ST GEORGE      CLOUDY    84  32  15 S39       29.66F

$$

REGIONAL REPORTS     COLORADO/ARIZONA

CITY           SKY/WX    TMP DP  RH WIND       PRES   REMARKS
CRAIG, CO      CLOUDY    70  30  22 SW24G39   29.82F
GRAND JUNCTION CLOUDY    74  23  15 SW24G32   29.81F
RIFLE          CLOUDY    75  23  14 SW20G35   29.83F
MONTROSE       CLOUDY    75  29  18 S23G33    29.89F
CORTEZ         MOSUNNY   74  27  17 S17G28    29.93F
PAGE, AZ       CLOUDY    79  25  13 SW13G23   29.77F
GRAND CANYON   CLOUDY    68  26  20 SW31G44   29.95F
KINGMAN        CLOUDY    82  26  13 SW33G45   29.81F
FLAGSTAFF      MOSUNNY   67  28  23 SW24G41   30.01F

$$

REGIONAL REPORTS    NEVADA/IDAHO/WYOMING

CITY           SKY/WX    TMP DP  RH WIND       PRES   REMARKS
LAS VEGAS, NV  MOSUNNY   82  21  10 SW23G40   29.67F
ELY            LGT RAIN  49  29  46 W31G45    29.67R
ELKO           CLOUDY    41  35  79 S7        29.77F
POCATELLO, ID  RAIN      49  43  80 SW28G41   29.66R
BURLEY         RAIN      43  39  86 W21G37    29.70R FOG
EVANSTON, WY   PTSUNNY   61  23  23 SW26G41   29.74F
ROCK SPRINGS   CLOUDY    65  25  22 S26G35    29.76F

$$



USA.gov is the U.S. government's official web portal to all federal, state and local government web resources and services.